www.pogodaiklimat.ru

Погода и климат >> Архив погоды >> Оман >> Ibra


ПОГОДА в Ibra

  • Прогноз погоды в Ibra
  • Монитор погоды в Ibra
  • Климат города

АРХИВ ПОГОДЫ в Ibra

Время (UTC), дата Ветер
(напр.,м/с)
 
Видим.   Явления Облачность Т
(С)
Тd
(С)
f
(%)
Тe
(С)
Тes
(С)
Комфортность P
(гПа)
Po
(гПа)
Тmin
(С)
Tmax
(С)
R
(мм)
R24
(мм)
S
(см)
18 20.06 ЮВ 4 н/о н/о +33.9 +18.8 41 +39 +39 очень
душно
994.8 941.5 +46.6
21 20.06 Ю 2 н/о н/о +31.1 +16.2 41 +34 +34 душно 994.7 940.9
00 21.06 В 1 н/о н/о +29.2 +13.5 38 +31 +31 жарко 995.0 940.8
03 21.06 СЗ 2 н/о н/о +30.4 +13.8 36 +32 +32 жарко 995.6 941.6
06 21.06 З 1 9000 м мгла ясно +39.5 +8.1 15 +37 +57 опасность
солнечного
удара
995.9 941.9 +27.0
09 21.06 З 6 н/о н/о +44.4 -4.1 5 +40 +40 очень
жарко
992.4 940.6
12 21.06 ЮЗ 7 8000 м мгла ясно +44.0 -1.5 6 +40 +42 очень
жарко
999.6 939.6
15 21.06 ЮЗ 5 н/о н/о +41.9 -0.8 7 +38 +38 очень
жарко
992.4 940.3
18 21.06 ЮЗ 3 н/о н/о +37.8 +0.3 10 +34 +34 очень
жарко
995.4 942.4 +45.2
21 21.06 В 2 н/о н/о +31.1 +9.4 26 +38 +38 очень
душно
997.1 943.2
00 22.06 штиль 0 н/о н/о +29.4 +18.0 50 +34 +34 очень
душно
997.6 943.3
03 22.06 СЗ 1 н/о н/о +30.5 +17.6 46 +35 +35 очень
душно
999.0 944.8
06 22.06 СЗ 1 9000 м мгла ясно +36.9 +13.1 24 +37 +57 опасность
солнечного
удара
999.4 944.9 +27.6
09 22.06 Ю 4 9000 м мгла ясно +41.8 +2.5 9 +38 +54 опасность
солнечного
удара
997.0 943.3
12 22.06 ЮЗ 6 н/о н/о +43.5 +0.8 7 +40 +40 очень
жарко
993.8 941.8
15 22.06 ЮЗ 6 н/о н/о +41.7 +5.8 11 +38 +38 очень
жарко
994.5 942.2
18 22.06 Ю 5 н/о н/о +36.9 +14.2 26 +38 +38 очень
душно
996.9 943.9 +44.5
21 22.06 ЮВ 3 н/о н/о +30.5 +22.7 63 +40 +40 очень
душно
998.6 944.6
00 23.06 Ю 1 н/о н/о +29.5 +21.6 63 +38 +38 очень
душно
998.8 944.6
03 23.06 СЗ 1 н/о н/о +30.2 +22.2 62 +39 +39 очень
душно
999.7 945.6
06 23.06 З 2 8000 м мгла ясно +37.4 +15.9 28 +39 +58 опасность
солнечного
удара
1000.2 945.8 +28.5
09 23.06 З 4 9000 м мгла ясно +43.1 +6.3 11 +40 +56 опасность
солнечного
удара
997.6 944.1
12 23.06 З 5 9000 м мгла ясно +43.7 +2.2 8 +40 +44 очень
жарко
995.9 942.5
15 23.06 ЮЗ 6 н/о н/о +41.3 +5.4 11 +38 +38 очень
жарко
995.0 942.7
18 23.06 ЮЗ 4 н/о н/о +38.7 +8.3 16 +37 +37 очень
жарко
997.2 944.4 +44.5
21 23.06 В 2 н/о н/о +32.8 +20.0 47 +39 +39 очень
душно
998.3 944.6
00 24.06 В 3 н/о н/о +30.2 +20.8 57 +37 +37 очень
душно
998.3 944.2
03 24.06 СЗ 1 н/о н/о +30.3 +20.9 57 +38 +38 очень
душно
999.2 945.1
06 24.06 СЗ 1 н/о н/о +37.0 +16.7 30 +39 +39 очень
душно
998.3 945.3 +28.7
09 24.06 З 5 н/о н/о +42.7 +5.4 11 +40 +40 очень
жарко
995.4 943.3
12 24.06 ЮЗ 6 н/о н/о +44.1 -1.0 6 +40 +40 очень
жарко
992.8 940.9
15 24.06 ЮЗ 5 н/о н/о +42.4 -1.8 6 +38 +38 очень
жарко
993.1 940.9
18 24.06 З 4 н/о н/о +39.8 -0.5 8 +36 +36 очень
жарко
995.2 942.6 +45.0
21 24.06 В 3 н/о н/о +33.4 +11.9 27 +33 +33 жарко 995.6 942.0
00 25.06 ЮВ 1 н/о н/о +30.6 +17.4 45 +35 +35 очень
душно
995.7 941.7
03 25.06 СЗ 2 н/о н/о +30.9 +17.9 46 +35 +35 очень
душно
995.9 942.0
06 25.06 З 1 9000 м мгла 3/3 750 м
[Sc diur, vesp]
+39.3 +8.9 16 +37 +51 опасность
солнечного
удара
1001.8 941.8 +29.3
09 25.06 ЮВ 2 9000 м мгла 5/4 750 м
[Sc diur, vesp Ac trans]
+44.5 +2.8 8 +41 +52 опасность
перегрева
1000.5 940.5
12 25.06 СЗ 4 9000 м мгла 6/3 750 м
[Sc Ac trans]
+45.8 -0.3 6 +42 +45 опасность
перегрева
998.8 938.8
15 25.06 С 6 н/о н/о +43.1 +5.0 10 +39 +39 очень
жарко
991.1 939.1
18 25.06 Ю 5 н/о н/о +38.2 +11.1 20 +37 +37 очень
жарко
993.6 940.9 +46.3
21 25.06 СВ 1 н/о н/о +34.4 +11.8 25 +34 +34 очень
жарко
994.7 941.3
00 26.06 ЮВ 2 н/о н/о +33.3 +11.4 26 +33 +33 жарко 994.4 940.9
03 26.06 н/о н/о +34.4 +10.6 23 995.4 941.9
06 26.06 СВ 3 9000 м мгла 5/5 750 м
[Sc diur, vesp]
+39.8 +7.3 14 +37 +44 очень
жарко
996.2 942.2 +32.0
09 26.06 СВ 3 н/о н/о +44.6 +0.1 7 +41 +41 опасность
перегрева
992.7 941.0
12 26.06 С 5 9000 м мгла 4/4 750 м
[Sc diur, vesp Ac trans]
+46.4 +4.2 8 +43 +46 опасность
перегрева
992.0 939.3
15 26.06 ЮВ 6 8000 м мгла 4/4 750 м
[Sc Ac trans]
+42.0 +11.0 16 +41 +41 опасность
перегрева
994.2 940.8
18 26.06 ЮВ 2 9000 м мгла ясно +37.4 +14.7 26 +38 +38 душно 997.3 943.0 +47.1
21 26.06 С 1 н/о н/о +34.6 +15.1 31 +36 +36 душно 995.5 942.1
00 27.06 СЗ 1 н/о н/о +32.4 +14.7 34 +34 +34 очень
жарко
995.5 941.8
03 27.06 ЮВ 1 н/о н/о +33.2 +13.3 30 +34 +34 очень
жарко
996.3 942.6
06 27.06 ЮВ 2 н/о н/о +40.1 +10.7 17 +39 +39 очень
жарко
995.3 942.8 +31.1
09 27.06 С 4 9000 м мгла 6/3 750 м
[Sc Ac trans]
+44.2 +8.5 12 +42 +49 опасность
перегрева
994.2 941.1
12 27.06 СЗ 3 9000 м мгла 5/3 750 м
[Sc Ac trans]
+44.3 +9.7 13 +43 +47 опасность
перегрева
992.5 939.5
15 27.06 Ю 6 9000 м мгла 4/0
[Ac trans Ci fib]
+41.5 +10.6 16 +40 +40 очень
жарко
993.8 940.3

 

Местоположение метеостанции Ibra (Оман): широта 22.73 долгота 58.50 высота над уровнем моря 469 м.

В архиве по умолчанию представлена погода в Ibra за последнюю неделю. Архивные данные за месяц целиком и за предыдущие месяцы, начиная с января 2011 года, Вы можете получить, выбрав интересующий диапазон дат из раскрывающегося списка и нажав кнопку "Ввод!".

Внимание! Время в таблицах - всемирное. Для получения местного времени необходимо прибавить поправку, которая в Ibra равна 4 ч.

Смотрите также архив погоды в соседних городах и на ближайших метеорологических станциях:

Погода в Al Mudhaibi (Оман) (45 км)
Погода в Bidiya (Оман) (47 км)
Погода в Al Amerat (Оман) (86 км)
Погода в Samail (Оман) (86 км)
Погода в Qalhat (Оман) (93 км)
Погода в Saiq (Оман) (97 км)
Погода в Seeb (Оман) (97 км)
Погода в Mina Sultan Qaboos (Оман) (99 км)
Погода в Nizwa (Оман) (100 км)
Погода в Sur (Оман) (102 км)

Пояснения к столбцам:

Ветер - указаны скорость ветра в м/с - средняя за 10 мин, порывы в срок и между сроками (в фигурных скобках) и направление, откуда дует ветер: С - северный, СВ - северо-восточный, В - восточный, ЮВ - юго-восточный, Ю - южный, ЮЗ - юго-западный, З - западный, СЗ - северо-западный.
Видимость - горизонтальная дальность видимости в метрах или километрах. При видимости от 1 до 10 км при отсутствии осадков обычно наблюдается дымка, при ухудшении видимости до 1 км и менее - туман. В сухую погоду видимость может ухудшаться дымом, пылью или мглою.
Явления - указаны атмосферные явления, наблюдавшиеся в срок или в последний час перед сроком; фигурными скобками обозначены явления, наблюдавшиеся между сроками (за 1-3 часа до срока); квадратными скобками обозначены град или гололедные отложения с указанием их диаметра в мм.
Облачность - указаны через наклонную черту общая и нижняя облачность в баллах и высота нижней границы облаков в метрах; квадратными скобками обозначены формы облаков: Ci - перистые, Cs - перисто-слоистые, Cc - перисто-кучевые, Ac - высококучевые, As - высокослоистые, Sc - слоисто-кучевые, Ns - слоисто-дождевые, Cu - кучевые, Cb - кучево-дождевые. Подробнее классификацию облаков см. в Атласе облаков (PDF).
T - Температура воздуха - температура, измеренная на высоте 2 м над землей.
Td - Температура точки росы - температура, при понижении до которой содержащийся в воздухе водяной пар достигнет насыщения.
f - Относительная влажность воздуха - влажноcть воздуха, измеренная на высоте 2 м над землей.
Te - Эффективная температура - температура, которую ощущает одетый по сезону человек в тени. Характеристика душности погоды. При расчете учитывается влияние влажности воздуха и скорости ветра на теплоощущения человека.
Tes - Эффективная температура на солнце - температура, которую ощущает человек, с поправкой на солнечный нагрев. Характеристика знойности погоды. Зависит от высоты солнца над горизонтом, облачности и скорости ветра. Ночью, в пасмурную погоду, а также при ветре 12 м/с и более поправка равна нулю.
P - Атмосферное давление - приведенное к уровню моря атмосферное давление.
Po - Атмосферное давление - измеренное на уровне метеостанции атмосферное давление.
Tmin - Минимальная температура - минимум температуры воздуха на высоте 2 м над землей.
Tmax - Максимальная температура - максимум температуры воздуха на высоте 2 м над землей.
R - Количество осадков - Количество выпавших осадков за период времени, мм. При наведении курсора мыши на число - период времени, за который выпало указанное количество осадков.
R24 - Количество осадков - Количество выпавших осадков за 24 часа, мм.
S - Снежный покров - Высота снежного покрова, см. При наведении курсора мыши на число - состояние снежного покрова и степень покрытия местности в баллах.